Hourly Weather Bolshoe Rogatino

Today, 27 July, Tuesday

Time Temperature Precipitation Wind Pressure Humidity
00:00 +18°C° 0 mm 2 mps 751 mmHg 66%
01:00 +17°C° 0 mm 2 mps 751 mmHg 68%
02:00 +18°C° 0 mm 1 mps 751 mmHg 69%
03:00 +16°C° 0 mm 1 mps 751 mmHg 71%
04:00 +18°C° 0 mm 1 mps 751 mmHg 70%
05:00 +18°C° 0 mm 1 mps 751 mmHg 69%
06:00 +18°C° 0 mm 1 mps 751 mmHg 68%
07:00 +21°C° 0 mm 1 mps 751 mmHg 61%
08:00 +23°C° 0 mm 1 mps 751 mmHg 53%
09:00 +25°C° 0 mm 1 mps 751 mmHg 46%
10:00 +26°C° 0 mm 2 mps 751 mmHg 42%
11:00 +27°C° 0 mm 2 mps 751 mmHg 38%
12:00 +29°C° 0 mm 2 mps 750 mmHg 34%
13:00 +29°C° 0 mm 2 mps 750 mmHg 33%
14:00 +29°C° 0 mm 2 mps 750 mmHg 32%
15:00 +30°C° 0 mm 2 mps 749 mmHg 31%
16:00 +29°C° 0 mm 2 mps 749 mmHg 33%
17:00 +29°C° 0 mm 2 mps 749 mmHg 36%
18:00 +28°C° 0 mm 2 mps 748 mmHg 38%
19:00 +26°C° 0 mm 2 mps 748 mmHg 44%
20:00 +24°C° 0 mm 2 mps 748 mmHg 50%
21:00 +22°C° 0 mm 1 mps 748 mmHg 56%
22:00 +20°C° 0 mm 2 mps 748 mmHg 62%
23:00 +19°C° 0 mm 2 mps 748 mmHg 68%

Tomorrow, 28 July, Wednesday

Time Temperature Precipitation Wind Pressure Humidity
00:00 +18°C° 0 mm 2 mps 748 mmHg 74%
01:00 +18°C° 0 mm 2 mps 748 mmHg 77%
02:00 +17°C° 0 mm 2 mps 748 mmHg 80%
03:00 +16°C° 0 mm 2 mps 748 mmHg 84%
04:00 +16°C° 0 mm 2 mps 748 mmHg 82%
05:00 +18°C° 0 mm 1 mps 748 mmHg 81%
06:00 +18°C° 0 mm 1 mps 748 mmHg 79%
07:00 +19°C° 0 mm 2 mps 747 mmHg 71%
08:00 +21°C° 0 mm 2 mps 747 mmHg 62%
09:00 +25°C° 0 mm 2 mps 747 mmHg 53%
10:00 +26°C° 0 mm 2 mps 746 mmHg 48%
11:00 +28°C° 0 mm 2 mps 746 mmHg 43%
12:00 +30°C° 0 mm 3 mps 746 mmHg 37%
13:00 +29°C° 0.1 mm 3 mps 745 mmHg 42%
14:00 +28°C° 0.1 mm 3 mps 745 mmHg 46%
15:00 +27°C° 0.1 mm 3 mps 744 mmHg 51%
16:00 +26°C° 0.4 mm 3 mps 744 mmHg 57%
17:00 +25°C° 0.4 mm 3 mps 743 mmHg 63%
18:00 +24°C° 0.4 mm 3 mps 743 mmHg 70%
19:00 +21°C° 0.4 mm 3 mps 743 mmHg 76%
20:00 +20°C° 0.4 mm 2 mps 742 mmHg 82%
21:00 +19°C° 0.4 mm 2 mps 742 mmHg 87%
22:00 +19°C° 0.1 mm 2 mps 742 mmHg 90%
23:00 +18°C° 0.1 mm 2 mps 742 mmHg 92%

Day after tomorrow, 29 July, Thursday

Time Temperature Precipitation Wind Pressure Humidity
00:00 +17°C° 0.1 mm 2 mps 741 mmHg 94%
01:00 +17°C° 0 mm 2 mps 741 mmHg 94%
02:00 +17°C° 0 mm 2 mps 741 mmHg 95%
03:00 +17°C° 0 mm 2 mps 740 mmHg 95%
04:00 +17°C° 0 mm 2 mps 740 mmHg 95%
05:00 +18°C° 0 mm 1 mps 740 mmHg 95%
06:00 +18°C° 0 mm 1 mps 740 mmHg 94%
07:00 +18°C° 0 mm 2 mps 739 mmHg 90%
08:00 +20°C° 0 mm 3 mps 739 mmHg 86%
09:00 +21°C° 0 mm 3 mps 739 mmHg 82%
10:00 +22°C° 0 mm 3 mps 739 mmHg 76%
11:00 +23°C° 0 mm 4 mps 739 mmHg 70%
12:00 +25°C° 0 mm 4 mps 739 mmHg 63%
13:00 +27°C° 0 mm 4 mps 739 mmHg 55%
14:00 +28°C° 0 mm 5 mps 739 mmHg 47%
15:00 +29°C° 0 mm 5 mps 738 mmHg 39%
16:00 +29°C° 0 mm 5 mps 738 mmHg 40%
17:00 +28°C° 0 mm 5 mps 738 mmHg 42%
18:00 +28°C° 0 mm 5 mps 738 mmHg 43%
19:00 +26°C° 0 mm 4 mps 738 mmHg 49%
20:00 +25°C° 0 mm 3 mps 738 mmHg 54%
21:00 +22°C° 0 mm 3 mps 738 mmHg 60%
22:00 +21°C° 0 mm 3 mps 738 mmHg 66%
23:00 +19°C° 0 mm 2 mps 739 mmHg 73%

30 July, Friday

Time Temperature Precipitation Wind Pressure Humidity
00:00 +18°C° 0 mm 2 mps 739 mmHg 79%
01:00 +18°C° 0 mm 2 mps 739 mmHg 82%
02:00 +17°C° 0 mm 2 mps 739 mmHg 84%
03:00 +17°C° 0 mm 2 mps 739 mmHg 87%
04:00 +17°C° 0 mm 2 mps 739 mmHg 85%
05:00 +17°C° 0 mm 2 mps 739 mmHg 84%
06:00 +18°C° 0 mm 2 mps 739 mmHg 82%
07:00 +20°C° 0 mm 2 mps 740 mmHg 74%
08:00 +23°C° 0 mm 2 mps 740 mmHg 66%
09:00 +25°C° 0 mm 3 mps 740 mmHg 57%
10:00 +26°C° 0 mm 3 mps 740 mmHg 55%
11:00 +27°C° 0 mm 4 mps 740 mmHg 52%
12:00 +27°C° 0 mm 4 mps 739 mmHg 50%
13:00 +27°C° 0.1 mm 4 mps 739 mmHg 50%
14:00 +27°C° 0.1 mm 4 mps 739 mmHg 49%
15:00 +26°C° 0.1 mm 4 mps 739 mmHg 49%
16:00 +26°C° 0 mm 4 mps 739 mmHg 47%
17:00 +27°C° 0 mm 4 mps 739 mmHg 45%
18:00 +27°C° 0 mm 4 mps 739 mmHg 43%
19:00 +25°C° 0 mm 3 mps 739 mmHg 48%
20:00 +22°C° 0 mm 3 mps 739 mmHg 53%
21:00 +21°C° 0 mm 2 mps 739 mmHg 58%
22:00 +20°C° 0 mm 2 mps 739 mmHg 60%
23:00 +20°C° 0 mm 2 mps 739 mmHg 63%

31 July, Saturday

Time Temperature Precipitation Wind Pressure Humidity
00:00 +19°C° 0 mm 2 mps 738 mmHg 65%
01:00 +18°C° 0 mm 2 mps 738 mmHg 69%
02:00 +18°C° 0 mm 3 mps 738 mmHg 72%
03:00 +17°C° 0 mm 3 mps 738 mmHg 75%
04:00 +18°C° 0 mm 3 mps 738 mmHg 73%
05:00 +18°C° 0 mm 3 mps 738 mmHg 70%
06:00 +18°C° 0 mm 4 mps 738 mmHg 67%
07:00 +20°C° 0 mm 4 mps 738 mmHg 59%
08:00 +21°C° 0 mm 5 mps 738 mmHg 51%
09:00 +22°C° 0 mm 5 mps 739 mmHg 44%
10:00 +24°C° 0 mm 6 mps 738 mmHg 39%
11:00 +26°C° 0 mm 6 mps 738 mmHg 35%
12:00 +27°C° 0 mm 6 mps 738 mmHg 31%
13:00 +28°C° 0 mm 7 mps 738 mmHg 31%
14:00 +28°C° 0 mm 7 mps 738 mmHg 30%
15:00 +29°C° 0 mm 7 mps 738 mmHg 30%
16:00 +29°C° 0 mm 6 mps 738 mmHg 31%
17:00 +28°C° 0 mm 5 mps 738 mmHg 32%
18:00 +28°C° 0 mm 5 mps 738 mmHg 34%
19:00 +25°C° 0 mm 4 mps 739 mmHg 40%
20:00 +22°C° 0 mm 3 mps 739 mmHg 47%
21:00 +20°C° 0 mm 2 mps 739 mmHg 53%
22:00 +19°C° 0 mm 2 mps 739 mmHg 56%
23:00 +18°C° 0 mm 2 mps 739 mmHg 59%

1 August, Sunday

Time Temperature Precipitation Wind Pressure Humidity
00:00 +17°C° 0 mm 2 mps 740 mmHg 62%
01:00 +17°C° 0 mm 2 mps 740 mmHg 64%
02:00 +17°C° 0 mm 2 mps 740 mmHg 65%
03:00 +16°C° 0 mm 2 mps 740 mmHg 67%
04:00 +17°C° 0 mm 2 mps 740 mmHg 66%
05:00 +17°C° 0 mm 2 mps 740 mmHg 66%
06:00 +18°C° 0 mm 2 mps 740 mmHg 65%
07:00 +18°C° 0.5 mm 2 mps 740 mmHg 74%
08:00 +18°C° 0.5 mm 2 mps 740 mmHg 83%
09:00 +18°C° 0.5 mm 3 mps 740 mmHg 92%
10:00 +18°C° 2.4 mm 3 mps 740 mmHg 93%
11:00 +18°C° 2.4 mm 3 mps 739 mmHg 93%
12:00 +18°C° 2.4 mm 3 mps 739 mmHg 94%
13:00 +18°C° 0.6 mm 2 mps 739 mmHg 92%
14:00 +19°C° 0.6 mm 2 mps 739 mmHg 90%
15:00 +19°C° 0.6 mm 2 mps 739 mmHg 88%
16:00 +19°C° 0 mm 2 mps 739 mmHg 87%
17:00 +20°C° 0 mm 2 mps 739 mmHg 86%
18:00 +21°C° 0 mm 1 mps 739 mmHg 85%
19:00 +19°C° 0.1 mm 2 mps 739 mmHg 90%
20:00 +18°C° 0.1 mm 2 mps 739 mmHg 94%
21:00 +17°C° 0.1 mm 2 mps 739 mmHg 98%
22:00 +17°C° 0.2 mm 2 mps 739 mmHg 97%
23:00 +17°C° 0.2 mm 2 mps 739 mmHg 97%
Show more

We Need Your Consent

Meteoprog and our Service Providers may store and access personal data such as cookies, device identifiers or other similar technologies on your device and process such data to personalise content and ads, as well as provide social media features and to analyse the traffic.

  • Store and/or access information on your device

    Cookies, device identifiers or other information can be stored or accessed on your device for the purposes indicated above.

  • Personalised ads and content, ad and content measurement, audience insights, and products development

    Ads and content can be personalised based on a profile. More data can be added to better personalise ads and content. Ad and content performance can be measured. Insights about the audience who saw the ads and content can be derived. Such data can be used to develop or improve user’s experience, systems and software.

By clicking ‘I Agree’ you will allow the use of indicated cookies, device identifiers, web beacons or other similar technologies. Your settings can be changed in the browser on your device.

For certain purposes, legitimate interests may be relied on, rather than consent. You can read more about this in our Privacy and Cookie Policy.